Lapse_Rate
5.4 5.2 5.1 5.1 5.2 5.3 5.2 5.3 5.2 5.4 5.6 5.7 5.7 5.8 5.8 5.8 5.9 6.0 5.9 5.9 5.8 5.7 5.8 5.7 5.6 5.7 5.9 5.8 5.7 5.5 5.4 5.2 5.3 5.3 5.2 5.3 5.3 5.2
5.3 5.3 5.2 4.9 5.1 5.1 5.0 5.3 5.2 5.2 5.4 5.5 5.6 5.7 5.8 5.9 6.0 6.0 5.7 5.9 5.9 5.7 5.8 5.9 5.8 5.7 5.7 5.5 5.6 5.3 5.2 5.2 5.1 5.1 5.2 5.2 5.1 5.5
5.1 5.1 5.1 4.8 4.8 5.1 4.9 4.9 5.1 5.0 5.2 5.6 5.7 5.7 5.7 5.8 6.0 6.1 6.0 6.0 5.9 5.9 5.8 5.7 5.7 5.4 5.5 5.4 5.4 5.2 5.0 5.0 4.8 4.9 5.0 5.2 5.1 5.5
5.0 4.8 4.8 4.7 4.7 4.9 5.1 5.1 4.9 4.9 5.0 5.5 5.7 5.7 5.6 5.7 5.8 6.1 6.2 6.3 6.2 6.2 5.9 5.8 5.7 5.7 5.6 5.4 5.2 5.0 4.8 4.9 5.0 4.9 5.1 5.2 5.1 5.4
5.1 4.6 5.0 4.6 4.7 4.8 4.9 4.9 5.0 4.9 4.8 5.1 5.3 5.4 5.5 5.6 5.7 5.5 5.7 6.0 6.0 5.9 5.8 5.6 5.8 5.7 5.5 5.2 5.1 4.9 4.6 4.7 4.7 4.7 4.8 5.1 5.1 5.0
5.3 5.0 5.1 4.5 4.8 4.7 4.9 4.9 4.8 4.9 5.0 5.0 5.1 5.3 5.4 5.7 5.7 5.7 5.6 5.6 5.6 5.9 6.1 5.9 5.7 5.7 5.2 4.9 4.9 4.5 4.7 4.6 4.6 4.5 4.9 5.1 5.0 5.1
5.9 5.6 5.5 4.6 4.5 4.5 4.7 5.0 5.1 5.0 5.1 5.0 5.1 5.3 5.7 5.7 5.7 5.3 5.5 5.5 5.7 5.7 5.8 5.5 5.7 5.4 5.2 5.0 4.6 4.7 4.7 4.6 4.4 4.5 4.9 5.0 4.9 4.9
5.0 5.4 5.0 5.2 4.9 4.6 4.9 4.9 5.3 4.9 5.0 5.2 5.3 5.7 5.7 5.7 5.7 5.5 5.4 5.3 5.6 5.4 5.2 5.2 5.2 5.1 5.0 4.6 4.4 4.4 4.5 4.6 4.5 4.6 4.9 4.8 4.8 4.8
5.0 4.9 4.9 5.0 5.2 5.3 5.0 5.1 5.1 5.1 5.2 4.9 5.1 5.4 5.4 5.5 4.8 4.8 5.5 5.2 5.0 4.8 4.7 5.2 5.0 4.9 4.8 4.5 4.5 4.4 4.5 4.5 4.8 4.8 4.8 4.8 4.7 4.7
5.2 5.1 5.2 5.2 5.3 5.1 5.3 5.1 5.2 5.1 5.0 5.0 5.0 5.1 5.1 5.1 5.1 5.3 5.1 5.0 4.7 4.8 5.0 5.2 4.9 4.8 4.6 4.5 4.4 4.3 4.4 4.5 4.8 4.7 4.7 4.5 4.4 4.5
5.1 5.4 5.0 4.9 5.4 5.3 5.0 5.1 5.3 5.2 5.1 5.0 4.8 4.8 4.9 5.1 5.2 5.1 5.2 4.6 4.5 4.9 4.7 5.0 5.0 4.8 4.6 4.4 4.2 4.1 4.4 4.5 4.6 4.4 4.4 4.3 4.1 3.9
5.3 5.1 4.5 5.0 5.2 5.4 5.3 5.4 5.4 5.2 5.2 5.2 4.6 4.5 4.8 4.4 4.4 4.4 4.5 4.1 4.7 4.5 4.8 4.8 4.7 4.6 4.4 4.4 4.5 4.5 4.6 4.7 4.6 4.4 4.4 4.4 4.4 4.1
4.9 4.8 4.9 4.9 5.0 5.0 5.1 5.1 5.0 5.0 5.1 5.0 5.0 4.9 5.2 4.7 4.1 4.4 3.8 4.2 4.3 4.4 4.7 4.7 4.7 4.6 4.6 4.7 4.7 4.7 4.6 4.4 4.2 4.0 4.0 3.8 3.9 3.8
6.0 5.7 5.7 5.8 5.4 5.3 5.3 4.9 4.7 4.4 4.5 4.3 4.3 4.4 4.4 4.2 4.3 4.0 4.1 4.0 4.3 4.4 4.6 4.4 4.5 4.4 4.6 4.5 4.6 4.7 4.5 4.3 4.1 4.1 4.0 3.8 3.8 3.7
6.2 6.2 6.1 6.1 5.9 5.8 5.8 5.4 4.8 4.4 4.6 4.6 4.5 4.2 4.0 4.0 4.3 4.4 3.8 3.5 3.5 3.7 4.0 4.3 4.0 4.3 4.4 4.5 4.6 4.5 4.2 3.9 3.7 3.8 3.9 3.8 4.0 4.0
6.2 6.3 6.1 6.1 5.9 5.8 5.6 5.6 5.8 5.3 4.8 4.6 4.7 4.5 4.0 4.3 4.4 4.3 4.0 3.7 4.1 3.8 4.0 3.8 3.7 4.4 4.3 4.4 4.3 4.1 3.9 3.7 3.7 3.8 3.7 3.8 4.0 4.3
6.3 5.9 6.0 6.0 5.9 5.5 5.7 5.6 5.6 5.3 5.2 5.0 5.0 4.8 4.6 4.7 4.8 4.4 4.0 3.9 4.2 3.5 4.0 3.7 4.2 4.3 4.4 4.1 4.1 4.1 4.0 4.0 4.0 4.0 4.2 4.4 4.6 4.5
6.1 6.0 6.2 6.0 6.1 6.0 5.6 5.5 5.2 5.1 5.5 5.6 5.3 4.8 4.7 4.6 4.5 4.0 3.9 3.9 3.7 4.1 3.9 3.9 4.1 4.2 4.1 4.1 4.1 4.3 4.1 4.3 4.4 4.5 4.6 4.8 4.8 4.6
6.2 6.2 6.1 6.1 6.0 5.7 5.7 5.6 5.6 5.5 5.3 5.2 5.4 5.3 4.8 4.3 4.1 3.9 3.8 4.1 4.3 4.1 3.9 3.6 3.8 4.1 4.2 4.2 4.3 4.3 4.5 4.7 4.6 4.6 4.6 4.7 4.7 4.9
6.0 6.0 6.0 6.0 5.9 5.8 5.8 5.7 5.7 5.6 5.4 5.3 5.3 5.3 5.0 4.7 4.4 4.4 4.5 4.5 4.4 4.2 4.0 4.0 4.3 4.5 4.3 4.2 4.4 4.8 4.7 4.6 4.6 4.6 4.7 4.6 4.7 4.8
5.8 5.8 5.9 5.8 5.7 5.7 5.8 5.8 5.8 5.6 5.4 5.2 5.1 5.0 5.0 4.9 4.9 5.0 4.9 4.8 4.7 4.7 4.7 4.8 4.7 4.2 4.2 4.4 4.7 4.7 4.6 4.8 4.8 4.8 4.7 4.6 4.7 4.8
5.8 5.8 5.8 5.8 5.8 5.6 5.5 5.5 5.4 5.4 5.3 5.2 5.0 4.9 4.8 4.8 4.8 4.8 4.8 4.8 4.8 4.7 4.7 4.5 4.3 4.4 4.6 4.7 4.7 4.6 4.8 4.9 4.8 4.6 4.5 4.5 4.7 5.1
6.0 6.0 5.9 5.8 5.7 5.7 5.8 5.8 5.7 5.6 5.5 5.4 5.4 5.3 5.2 5.1 5.0 4.9 4.9 4.8 4.8 4.7 4.7 4.5 4.4 4.4 4.4 4.5 4.6 4.8 5.0 5.0 4.9 4.8 4.9 5.0 5.3 5.5
Wind_Speed
7 7 4 4 4 4 3 7 5 4 5 5 3 11 15 19 16 13 13 10 9 8 7 7 7 8 9 10 11 11 12 11 12 14 14 16 17 18
5 7 5 4 5 4 4 4 3 4 4 3 3 4 14 12 17 10 16 13 10 8 8 8 7 7 8 9 11 10 10 11 11 13 13 13 15 16
7 9 8 7 5 5 4 3 4 3 3 1 2 6 5 7 11 15 20 15 11 10 8 8 9 7 8 10 10 9 10 11 10 11 13 14 14 15
12 12 12 8 7 6 5 6 4 4 3 6 3 3 4 7 9 10 12 14 15 14 11 10 9 8 9 10 9 9 9 9 9 9 11 12 12 13
14 14 13 12 10 8 6 7 5 3 5 5 4 2 3 4 3 3 4 13 14 14 12 10 10 9 11 9 9 8 7 8 8 7 10 11 12 13
12 13 12 14 14 13 12 11 7 6 5 7 4 7 5 3 4 4 3 2 3 11 11 11 10 10 10 8 7 7 6 4 5 6 8 9 10 10
8 11 11 14 15 13 10 10 10 8 8 8 7 4 6 7 10 4 3 2 2 5 3 7 10 8 8 10 9 8 4 3 2 3 5 7 7 9
12 9 10 12 14 16 15 14 15 12 10 7 7 9 10 8 6 7 4 4 3 10 3 3 11 5 11 11 11 10 5 3 1 0 3 5 6 8
10 10 8 8 11 12 15 15 14 16 17 12 11 10 9 11 9 8 6 5 4 3 4 3 5 4 12 13 15 13 10 7 3 2 3 5 6 7
13 12 13 11 13 13 12 11 10 10 9 7 10 9 8 13 14 11 10 6 3 2 7 4 4 4 10 15 15 15 11 7 5 3 5 6 6 7
8 10 13 13 19 21 14 13 11 7 13 16 16 19 19 23 19 7 7 8 3 3 4 3 3 3 3 3 15 17 10 9 7 4 4 6 7 8
5 8 14 11 15 20 14 14 13 11 12 8 5 9 15 18 25 18 10 9 4 1 4 4 3 4 1 3 13 17 16 11 10 7 5 5 5 7
6 5 6 15 18 20 16 11 12 11 12 9 6 4 5 5 9 12 15 7 5 2 7 4 3 3 2 2 1 8 14 9 8 6 6 7 6 8
6 5 6 16 19 19 13 11 16 14 7 6 5 4 4 4 3 6 11 8 8 3 17 10 3 3 3 2 2 2 5 10 9 6 7 9 9 10
4 7 10 14 16 13 13 18 17 7 6 4 5 4 5 5 10 7 9 10 9 8 17 8 5 3 3 2 2 2 3 3 11 7 8 8 8 9
5 5 8 10 11 9 11 11 6 6 6 4 4 4 5 6 5 3 3 3 2 1 4 10 10 7 2 2 3 2 2 2 2 6 9 10 12 13
5 3 3 3 5 5 5 6 6 6 5 4 5 5 5 6 5 4 2 3 2 4 2 1 5 7 5 4 2 4 4 3 3 3 2 3 6 12
2 3 3 4 4 5 5 4 5 8 5 6 6 7 7 7 7 5 2 3 4 4 4 3 3 2 2 4 13 5 3 4 3 4 3 2 4 9
2 1 3 4 3 3 4 5 4 4 5 6 6 7 6 6 10 6 6 5 4 4 4 5 5 3 3 4 2 22 5 3 2 2 3 3 4 7
2 1 1 3 3 3 4 3 4 5 6 6 6 7 7 8 7 8 8 8 7 5 5 6 5 6 6 5 3 3 23 4 3 3 3 2 10 17
3 3 2 1 1 2 3 3 4 5 6 6 7 6 7 7 7 7 8 13 12 7 8 8 10 16 6 5 0 3 2 19 13 4 2 1 3 2
4 3 3 3 2 2 1 2 2 3 4 5 5 6 6 7 7 8 8 8 9 8 8 5 4 6 6 9 9 4 2 2 12 17 16 13 3 6
4 4 3 2 2 2 1 1 1 2 4 5 4 5 6 6 7 7 7 8 7 8 7 7 6 7 8 8 9 4 4 3 2 2 4 16 21 25
Wind_Direction
184 185 177 193 191 185 156 162 145 160 193 204 169 176 150 157 164 164 149 144 139 135 131 129 129 114 107 111 102 90 86 80 71 65 60 57 56 52
182 183 188 179 178 171 173 180 158 141 169 163 191 145 150 155 171 180 160 146 141 148 145 133 125 123 125 122 109 101 90 81 69 64 61 58 55 51
185 185 192 179 181 176 174 166 190 147 139 191 116 150 133 146 172 160 155 152 154 158 144 142 133 133 135 132 118 104 92 81 69 59 53 48 42 44
193 187 189 182 184 177 171 184 178 167 133 152 128 148 130 150 171 165 166 164 164 162 159 155 152 148 148 132 120 99 91 80 67 60 51 47 38 39
194 196 191 181 180 178 174 180 178 162 143 147 139 134 118 143 144 180 203 154 160 163 160 159 159 156 148 147 140 115 91 73 62 57 44 35 27 23
196 196 187 195 191 184 182 182 170 162 145 152 137 162 155 147 143 164 191 100 139 165 160 161 163 165 165 166 152 128 100 93 60 55 37 26 15 15
191 191 196 199 191 187 184 184 172 172 160 161 161 152 168 167 180 161 169 153 193 163 142 171 164 165 178 184 179 171 148 119 70 68 29 17 9 6
206 197 194 194 193 182 181 180 180 176 169 167 169 179 186 181 155 176 145 162 216 199 140 208 181 190 190 195 199 199 188 185 162 90 5 7 1 0
197 203 197 197 179 195 178 173 177 186 180 170 177 184 173 180 162 174 172 175 201 163 141 180 179 195 191 190 192 195 198 202 202 285 333 350 355 354
203 199 203 185 182 176 177 183 182 177 172 171 174 174 174 167 177 182 181 153 67 133 154 181 178 198 188 190 196 196 203 206 206 279 329 343 336 343
213 202 207 202 185 175 179 178 176 167 145 146 159 165 164 166 169 141 164 164 175 207 192 136 178 150 165 184 203 204 202 210 225 268 311 328 319 327
193 198 199 194 189 181 191 182 179 177 146 122 117 135 155 172 175 184 166 180 161 167 205 146 144 138 198 212 195 206 208 223 227 252 278 287 286 308
183 195 200 193 194 190 188 188 191 159 161 151 148 148 131 167 185 174 176 175 174 205 182 135 148 144 126 161 191 189 199 212 219 255 285 283 277 302
174 198 196 194 190 184 178 183 155 151 148 145 154 144 143 170 155 144 171 172 187 179 170 152 142 149 140 138 189 184 205 212 218 228 250 274 279 293
163 178 178 187 180 176 158 156 152 152 141 152 163 155 177 163 131 110 114 121 105 131 158 162 143 133 131 159 174 178 148 243 229 204 250 250 265 280
128 158 172 175 170 169 156 160 143 150 153 162 167 144 134 140 143 131 129 151 101 54 111 153 158 139 123 170 138 166 186 201 214 217 228 252 258 262
133 102 139 144 149 159 156 149 139 145 147 137 142 151 150 149 155 159 125 156 146 158 157 91 159 163 136 153 179 206 211 226 214 229 181 252 253 257
111 124 140 153 148 154 147 132 141 151 157 158 166 170 173 173 168 172 140 171 168 167 155 162 152 109 16 260 215 222 214 221 206 217 203 194 271 278
97 130 172 149 152 151 158 156 158 168 157 172 173 171 171 177 174 179 188 178 186 174 162 159 176 155 142 213 263 214 208 194 173 225 202 203 247 272
64 165 141 160 159 160 163 165 161 163 173 174 172 175 178 176 177 186 190 194 191 183 185 183 182 193 191 208 199 239 210 200 180 225 254 236 260 283
22 41 50 97 107 156 164 163 168 176 178 178 188 184 182 178 190 190 193 196 193 192 199 203 210 205 185 118 285 239 239 220 212 196 189 181 276 262
19 22 19 21 30 57 88 125 146 175 174 189 192 190 188 189 196 193 195 196 203 204 218 210 163 193 187 208 229 207 204 209 231 242 242 233 233 281
14 9 2 9 360 13 62 104 111 167 190 191 189 192 188 194 193 195 198 202 204 209 211 214 194 195 206 204 214 211 186 191 184 246 255 259 266 270